Voltar ao catálogo

NOAA 16 DEB

AtivoSSO
NORAD 41287·DEBRIS·🇺🇸 United States

Lançado Sep 21, 2000 de Vandenberg Space Force Base

Loading…

Próximas Passagens (próximas 24 horas)

TLE

AtualizadoSource: Space-Track

Época: Sep 12, 2026, 10:31 UTC

1 41287U 00055GP  26255.43835735  .00003335  00000-0  13170-2 0  9998
2 41287  98.8648 331.2486 0025912 337.8184  22.1874 14.29556504551744

Acompanhe NOAA 16 DEB em tempo real com AllMySat

Download on the App Store